Change the Weather History Date:

Thursday, December 26, 2013

  Actual Average Record
Temperature  
Mean Temperature 42 °F -  
Max Temperature 51 °F 46 °F 53 °F (1998)
Min Temperature 34 °F 37 °F 32 °F (2000)
Degree Days  
Heating Degree Days 22    
Moisture  
Dew Point 39 °F    
Average Humidity 88    
Maximum Humidity 100    
Minimum Humidity 76    
Precipitation  
Precipitation 0.35 in 0.19 in - ()
Sea Level Pressure  
Sea Level Pressure 29.13 in    
Wind  
Wind Speed 14 mph ()    
Max Wind Speed 47 mph    
Max Gust Speed 68 mph    
Visibility 7.1 miles    
Events Rain    
Averages and records for this station are not official NWS values.
T = Trace of Precipitation, MM = Missing Value Source: Averaged Metar Reports

Daily Weather History Graph

Daily Weather History Graph

Search for Another Location

Airport or City:

Trip Planner

Search our weather history database for the weather conditions in past years. The results will help you decide how hot, cold, wet, or windy it might be!

Date:

Astronomy

Dec. 26, 2013 Rise Set
Actual Time 8:40 AM GMT 4:28 PM GMT
Civil Twilight 8:00 AM GMT 5:09 PM GMT
Nautical Twilight 7:16 AM GMT 5:52 PM GMT
Astronomical Twilight 6:35 AM GMT 6:33 PM GMT
Moon 1:20 AM GMT (12/26) 12:28 PM GMT (12/26)
Length of Visible Light 9h 08m
Length of Day
7h 47m
Last Quarter, 41% of the Moon is Illuminated
Dec 26
Last Quarter
Jan 1
New
Jan 8
First Quarter
Jan 16
Full
Jan 24
Last Quarter

Hourly Weather History & Observations

Time (GMT) Temp. Windchill Dew Point Humidity Pressure Visibility Wind Dir Wind Speed Gust Speed Precip Events Conditions
12:00 AM 37 °F - 35 °F 88% 29.22 in 19 mi WSW 11.2 mph - -   Partly Cloudy
1:00 AM 38 °F - 35 °F 87% 29.24 in 19 mi West 11.2 mph - -   Partly Cloudy
2:00 AM 39 °F - 35 °F 82% 29.25 in 19 mi West 8.9 mph - -   Partly Cloudy
2:30 AM 37.4 °F 30.8 °F 35.6 °F 93% 29.24 in 6.2 mi WNW 9.2 mph - N/A   Mostly Cloudy
3:00 AM 37 °F - 34 °F 84% 29.29 in 19 mi West 6.7 mph - -   Scattered Clouds
3:00 AM 37.4 °F 32.1 °F 33.8 °F 87% 29.27 in 6.2 mi West 6.9 mph - N/A   Scattered Clouds
3:30 AM 35.6 °F 28.6 °F 33.8 °F 93% 29.27 in 6.2 mi West 9.2 mph - N/A   Mostly Cloudy
4:00 AM 37 °F - 35 °F 87% 29.32 in 19 mi WSW 8.9 mph - -   Scattered Clouds
4:00 AM 37.4 °F 30.8 °F 33.8 °F 87% 29.30 in 6.2 mi WSW 9.2 mph - N/A   Scattered Clouds
4:30 AM 37.4 °F 31.4 °F 33.8 °F 87% 29.30 in 6.2 mi West 8.1 mph - N/A   Partly Cloudy
5:00 AM 38 °F - 34 °F 80% 29.34 in 19 mi West 13.4 mph - -   Scattered Clouds
5:00 AM 39.2 °F 31.6 °F 33.8 °F 81% 29.30 in 6.2 mi West 12.7 mph - N/A   Partly Cloudy
5:30 AM 37.4 °F 31.4 °F 33.8 °F 87% 29.33 in 6.2 mi WSW 8.1 mph - N/A   Partly Cloudy
6:00 AM 36 °F - 33 °F 86% 29.38 in 19 mi West 8.9 mph - -   Scattered Clouds
6:00 AM 37.4 °F 31.4 °F 33.8 °F 87% 29.33 in 6.2 mi West 8.1 mph - N/A   Partly Cloudy
6:30 AM 37.4 °F 32.1 °F 33.8 °F 87% 29.36 in 6.2 mi West 6.9 mph - N/A   Partly Cloudy
7:00 AM 39 °F - 34 °F 76% 29.39 in 19 mi West 11.2 mph - -   Scattered Clouds
7:00 AM 39.2 °F 32.0 °F 33.8 °F 81% 29.36 in 6.2 mi West 11.5 mph - N/A   Partly Cloudy
7:30 AM 35.6 °F 28.6 °F 33.8 °F 93% 29.39 in 6.2 mi West 9.2 mph - N/A   Partly Cloudy
8:00 AM 37 °F - 33 °F 80% 29.41 in 25 mi WSW 6.7 mph - -   Scattered Clouds
8:00 AM 37.4 °F 32.1 °F 33.8 °F 87% 29.39 in 6.2 mi WSW 6.9 mph - N/A   Partly Cloudy
8:30 AM 35.6 °F 28.6 °F 32.0 °F 87% 29.39 in 6.2 mi SW 9.2 mph - N/A   Partly Cloudy
9:00 AM 37 °F - 34 °F 83% 29.43 in 31 mi WSW 4.5 mph - -   Scattered Clouds
9:00 AM 37.4 °F 33.8 °F 33.8 °F 87% 29.39 in 6.2 mi WSW 4.6 mph - N/A   Partly Cloudy
9:30 AM 37.4 °F 32.1 °F 33.8 °F 87% 29.39 in 6.2 mi WSW 6.9 mph - N/A   Partly Cloudy
10:00 AM 37 °F - 33 °F 82% 29.43 in 31 mi SW 6.7 mph - -   Scattered Clouds
10:00 AM 37.4 °F 32.8 °F 33.8 °F 87% 29.39 in 6.2 mi SW 5.8 mph - N/A   Partly Cloudy
10:30 AM 37.4 °F 32.1 °F 35.6 °F 93% 29.42 in 6.2 mi SW 6.9 mph - N/A   Scattered Clouds
11:00 AM 39 °F - 36 °F 85% 29.44 in 31 mi SSW 6.7 mph - -   Scattered Clouds
11:00 AM 39.2 °F 34.2 °F 35.6 °F 87% 29.42 in 6.2 mi SSW 6.9 mph - N/A   Mostly Cloudy
11:30 AM 39.2 °F 35.9 °F 35.6 °F 87% 29.39 in 6.2 mi South 4.6 mph - N/A   Mostly Cloudy
12:00 PM 41 °F - 38 °F 83% 29.40 in 25 mi South 6.7 mph - -   Scattered Clouds
12:00 PM 41.0 °F 37.1 °F 37.4 °F 87% 29.36 in 6.2 mi South 5.8 mph - N/A   Mostly Cloudy
12:30 PM 41.0 °F 37.1 °F 37.4 °F 87% 29.36 in 6.2 mi South 5.8 mph - N/A   Mostly Cloudy
1:00 PM 41 °F - 39 °F 88% 29.34 in 25 mi South 8.9 mph - -   Scattered Clouds
1:00 PM 41.0 °F 35.8 °F 39.2 °F 93% 29.30 in 6.2 mi South 8.1 mph - N/A   Mostly Cloudy
1:30 PM 42.8 °F 36.6 °F 39.2 °F 87% 29.30 in 6.2 mi South 11.5 mph - N/A   Mostly Cloudy
2:00 PM 43 °F - 39 °F 82% 29.29 in 28 mi South 13.4 mph - -   Overcast
2:00 PM 42.8 °F 36.2 °F 39.2 °F 87% 29.27 in 6.2 mi South 12.7 mph - N/A   Overcast
2:30 PM 44.6 °F 38.1 °F 39.2 °F 81% 29.27 in 6.2 mi South 13.8 mph - N/A   Overcast
3:00 PM 43 °F - 39 °F 81% 29.22 in 6 mi South 20.1 mph - - Rain Light Rain
3:00 PM 42.8 °F 34.3 °F 39.2 °F 87% 29.21 in 6.2 mi South 19.6 mph 31.1 mph N/A Rain Light Rain
3:30 PM 41.0 °F 31.9 °F 39.2 °F 93% 29.18 in 6.2 mi South 19.6 mph - N/A Rain Light Rain
4:00 PM 42 °F - 40 °F 88% 29.13 in 4 mi South 22.4 mph - - Rain Light Rain
4:00 PM 42.8 °F 33.8 °F 39.2 °F 87% 29.09 in 4.3 mi South 21.9 mph 36.8 mph N/A Rain Light Rain
4:30 PM 42.8 °F 33.3 °F 41.0 °F 93% 29.06 in 2.5 mi South 24.2 mph 40.3 mph N/A Rain Rain
5:00 PM 43 °F - 42 °F 95% 29.03 in 2 mi SSE 29.1 mph - - Rain Rain
5:00 PM 42.8 °F 32.3 °F 42.8 °F 100% 29.00 in 2.5 mi SSE 29.9 mph 41.4 mph N/A Rain Rain
5:30 PM 44.6 °F 34.2 °F 42.8 °F 93% 28.91 in 1.9 mi SSE 33.4 mph 50.6 mph N/A Rain Rain
6:00 PM 46 °F - 45 °F 96% 28.89 in 2 mi South 29.1 mph - - Rain Rain
6:00 PM 46.4 °F 37.4 °F 44.6 °F 93% 28.85 in 1.6 mi South 28.8 mph 46.0 mph N/A Rain Rain
6:30 PM 46.4 °F 37.4 °F 46.4 °F 100% 28.80 in 1.6 mi South 28.8 mph 44.9 mph N/A Rain Rain
7:00 PM 48 °F - 48 °F 100% 28.77 in 1 mi South 29.1 mph - - Rain Rain
7:00 PM 48.2 °F - 48.2 °F 100% 28.77 in 1.2 mi South 29.9 mph 47.2 mph N/A Rain Rain
7:30 PM 50.0 °F - 50.0 °F 100% 28.71 in 1.6 mi South 32.2 mph 50.6 mph N/A Rain Rain
8:00 PM 51 °F - 51 °F 98% 28.66 in 2 mi South 33.6 mph - - Rain Rain
8:00 PM 50.0 °F - 50.0 °F 100% 28.65 in 1.9 mi South 33.4 mph 51.8 mph N/A Rain Rain
8:30 PM 51.8 °F - 51.8 °F 100% 28.62 in 4.3 mi SW 46.0 mph 67.9 mph N/A Rain Light Rain
9:00 PM 50 °F - 47 °F 87% 28.63 in 12 mi SW 44.7 mph - - Rain Light Rain
9:00 PM 50.0 °F - 48.2 °F 94% 28.62 in 6.2 mi SW 43.7 mph 58.7 mph N/A   Mostly Cloudy
9:30 PM 48.2 °F - 41.0 °F 76% 28.62 in 6.2 mi SW 39.1 mph 52.9 mph N/A   Mostly Cloudy
10:00 PM 47 °F - 43 °F 82% 28.61 in 6 mi SW 47.0 mph - - Rain Light Rain Showers
10:00 PM 46.4 °F 35.1 °F 42.8 °F 87% 28.59 in 5.6 mi SW 47.2 mph 67.9 mph N/A Rain Light Rain Showers
10:30 PM 46.4 °F 35.7 °F 42.8 °F 87% 28.59 in 6.2 mi SW 41.4 mph 58.7 mph N/A   Mostly Cloudy
11:00 PM 46 °F - 43 °F 84% 28.61 in 12 mi SW 40.3 mph - - Rain Light Rain Showers
11:00 PM 46.4 °F 35.8 °F 42.8 °F 87% 28.59 in 6.2 mi SW 40.3 mph 54.1 mph N/A   Mostly Cloudy
11:30 PM 46.4 °F 35.8 °F 41.0 °F 81% 28.59 in 5.0 mi WSW 40.3 mph 58.7 mph N/A Rain Light Rain Showers